Zurück zum Katalog

STARLINK-36951

AktivKommunikationVLEO
NORAD 67990·PAYLOAD·🇺🇸 United States

Gestartet Feb 27, 2026 von Vandenberg Space Force Base

Loading…

Nächste Überflüge (nächste 24 Stunden)

TLE

AktuellSource: CelesTrak SupGP

Epoche: Sep 14, 2026, 23:18 UTC

1 67990C 26039E   26257.97131944  .00042756  00000+0  15483-2 0  2574
2 67990  43.0005  60.1581 0001644 274.4636 295.5794 15.27562763    19

Verfolge STARLINK-36951 in Echtzeit mit AllMySat

Download on the App Store